Regional Weather Roundup
Issued by NWS

Home | Current Version | Previous Version | Text Only | Print | Product List | Glossary Off
Versions: 1 2 3 4 5 6 7 8 9 10 11 12 13 14 15 16 17 18 19 20 21 22 23 24 25 26 27 28 29 30 31 32 33 34 35 36 37 38 39 40 41 42 43 44 45 46 47 48 49 50

000
ASUS43 KOAX 270010
RWRNE

WEATHER ROUNDUP FOR NEBRASKA
NATIONAL WEATHER SERVICE OMAHA NE
600 PM CST FRI DEC 26 2014

NOTES: SATELLITE DATA IS BEING USED TO AUGMENT CLOUD COVER ABOVE
       12000 FEET.
       "FAIR" INDICATES FEW OR NO CLOUDS BELOW 12,000 FEET WITH NO
       SIGNIFICANT WEATHER AND/OR OBSTRUCTIONS TO VISIBILITY.

  * THESE STATIONS DO NOT REPORT WEATHER SUCH AS RAIN...SNOW OR FOG.

NEZ001>004-019>022-054>056-270100-
NEBRASKA PANHANDLE

CITY           SKY/WX    TMP DP  RH WIND       PRES   REMARKS
SCOTTSBLUFF    LGT SNOW  18  16  92 SW3       30.06R FOG
6HR MIN TEMP:  18; 6HR MAX TEMP:  22; 6HR PCP:  0.03;

ALLIANCE       CLOUDY    18  13  80 N9        30.04R WCI   7
6HR MIN TEMP:  18; 6HR MAX TEMP:  18;

CHADRON        CLOUDY    19  14  81 NE5       30.09S WCI  12
6HR MIN TEMP:  19; 6HR MAX TEMP:  21; 6HR PCP: TRACE;

KIMBALL        LGT SNOW  15  13  90 N5        29.96S WCI   8
SIDNEY         LGT SNOW  16  12  84 N12       30.02R FOG     WCI   3
6HR MIN TEMP:  16; 6HR MAX TEMP:  19; 6HR PCP:  0.01;

$$

NEZ057>060-069>072-079>082-270100-
SOUTHWEST NEBRASKA

CITY           SKY/WX    TMP DP  RH WIND       PRES   REMARKS
NORTH PLATTE   LGT SNOW  21  16  81 N10       30.05R WCI  10
6HR MIN TEMP:  21; 6HR MAX TEMP:  24; 6HR PCP:  0.12;

IMPERIAL       LGT SNOW  20  16  84 N15       30.03R FOG     WCI   6
6HR MIN TEMP:  20; 6HR MAX TEMP:  23; 6HR PCP:  0.01;

LEXINGTON      LGT SNOW  24  22  91 N13       30.04R WCI  12
MCCOOK         CLOUDY    23  20  88 N10       30.03S WCI  12
6HR MIN TEMP:  23; 6HR MAX TEMP:  27; 6HR PCP: TRACE;

OGALLALA       LGT SNOW  20  18  89 N12       30.05R WCI   9
$$

NEZ005>010-023>029-035>040-094-270100-
NORTH CENTRAL NEBRASKA

CITY           SKY/WX    TMP DP  RH WIND       PRES   REMARKS
VALENTINE      CLOUDY    20  16  84 N10       30.10R WCI   9
6HR MIN TEMP:  20; 6HR MAX TEMP:  22; 6HR PCP: TRACE;

AINSWORTH      LGT SNOW  19  17  90 N13       30.08R WCI   6
BROKEN BOW     LGT SNOW  22  18  85 N16G26    30.03S VSB 1   WCI   8
6HR MIN TEMP:  22; 6HR MAX TEMP:  27; 6HR PCP: TRACE;

O`NEILL        LGT SNOW  22  21  96 N14       30.07S WCI  10
ORD            LGT SNOW  22  19  89 N10       30.04S VSB 1   WCI  11
6HR MIN TEMP:  22; 6HR MAX TEMP:  27; 6HR PCP: TRACE;

THEDFORD       LGT SNOW  21  19  91 N8        30.07R WCI  11
$$

NEZ041-046>049-061>064-073>077-083>087-270100-
SOUTH CENTRAL NEBRASKA

CITY           SKY/WX    TMP DP  RH WIND       PRES   REMARKS
GRAND ISLAND   LGT SNOW  24  22  91 N17       30.04R VSB 3/4 WCI  11
6HR MIN TEMP:  24; 6HR MAX TEMP:  29; 6HR PCP:  0.04;

AURORA         LGT SNOW  26  25  95 N18       30.01S WCI  13
HASTINGS       LGT SNOW  25  22  88 N14G23    30.02R FOG     WCI  13
6HR MIN TEMP:  25; 6HR MAX TEMP:  29; 6HR PCP:  0.01;

HEBRON         CLOUDY    30  26  88 N9        29.99F WCI  21
HOLDREGE       LGT SNOW  23  21  91 N13       30.02R WCI  12
KEARNEY *      CLOUDY    23  19  86 NW18      30.02S WCI   9
YORK           LGT SNOW  27  27 100 N16       30.01R WCI  14
$$

NEZ011>018-030>034-042>045-270100-
NORTHEAST NEBRASKA

CITY           SKY/WX    TMP DP  RH WIND       PRES   REMARKS
NORFOLK        LGT SNOW  26  23  88 N16       30.03S FOG     WCI  14
6HR MIN TEMP:  26; 6HR MAX TEMP:  29; 6HR PCP: TRACE;

ALBION         LGT SNOW  24  20  85 N16G24    30.02S WCI  11
BLAIR          CLOUDY    32  30  91 N10       29.99R WCI  24
COLUMBUS *     CLOUDY    27  21  80 N13       30.03S WCI  16
FREMONT        CLOUDY    32  29  89 N9        30.02R WCI  24
TEKAMAH        CLOUDY    32  28  85 N17       30.02S WCI  21
6HR MIN TEMP:  32; 6HR MAX TEMP:  33;

WAYNE          CLOUDY    28  26  92 N12       30.04S WCI  18
$$

NEZ050>053-065>068-078-088>093-270100-
SOUTHEAST NEBRASKA

CITY           SKY/WX    TMP DP  RH WIND       PRES   REMARKS
LINCOLN        CLOUDY    31  28  89 N13       30.04R WCI  21
6HR MIN TEMP:  31; 6HR MAX TEMP:  33;

OMAHA EPPLEY   CLOUDY    33  30  88 N13       30.02R WCI  24
6HR MIN TEMP:  33; 6HR MAX TEMP:  34;

BEATRICE       CLOUDY    31  29  93 N12       29.98F FOG     WCI  22
FALLS CITY     CLOUDY    35  32  88 N6        29.96S WCI  30
6HR MIN TEMP:  35; 6HR MAX TEMP:  36;

NEBRASKA CITY  CLOUDY    32  32 100 N7        29.98F FOG     WCI  26
PLATTSMOUTH    CLOUDY    32  30  93 N7        29.99S FOG     WCI  26
$$

NEZ044-045-051>053-067-270100-
OMAHA AREA

CITY           SKY/WX    TMP DP  RH WIND       PRES   REMARKS
OMAHA EPPLEY   CLOUDY    33  30  88 N13       30.02R WCI  24
6HR MIN TEMP:  33; 6HR MAX TEMP:  34;

BLAIR          CLOUDY    32  30  91 N10       29.99R WCI  24
FREMONT        CLOUDY    32  29  89 N9        30.02R WCI  24
MILLARD        CLOUDY    33  30  89 N5        30.01R WCI  28
OFFUTT AFB     MIX PCPN  32  30  93 N8        30.00R WCI  25
PLATTSMOUTH    CLOUDY    32  30  93 N7        29.99S FOG     WCI  26
WAHOO          CLOUDY    32  28  85 N10       30.02R WCI  24
$$



USA.gov is the U.S. government's official web portal to all federal, state and local government web resources and services.